Year,Month,Day,Hour,Minute,Value (Times are PST for temperature in C)
2015,06,26,00,00,21.60
2015,06,26,00,01,21.60
2015,06,26,00,02,21.60
2015,06,26,00,03,21.60
2015,06,26,00,04,21.60
2015,06,26,00,05,21.60
2015,06,26,00,06,21.60
2015,06,26,00,07,21.60
2015,06,26,00,08,21.60
2015,06,26,00,09,21.50
2015,06,26,00,10,21.40
2015,06,26,00,11,21.40
2015,06,26,00,12,21.40
2015,06,26,00,13,21.40
2015,06,26,00,14,21.30
2015,06,26,00,15,21.30
2015,06,26,00,16,21.30
2015,06,26,00,17,21.30
2015,06,26,00,18,21.30
2015,06,26,00,19,21.30
2015,06,26,00,20,21.30
2015,06,26,00,21,21.20
2015,06,26,00,22,21.20
2015,06,26,00,23,21.20
2015,06,26,00,24,21.10
2015,06,26,00,25,21.10
2015,06,26,00,26,21.10
2015,06,26,00,27,21.10
2015,06,26,00,28,21.00
2015,06,26,00,29,21.00
2015,06,26,00,30,21.00
2015,06,26,00,31,21.00
2015,06,26,00,32,20.90
2015,06,26,00,33,20.90
2015,06,26,00,34,20.90
2015,06,26,00,35,20.90
2015,06,26,00,36,20.80
2015,06,26,00,37,20.80
2015,06,26,00,38,20.70
2015,06,26,00,39,20.60
2015,06,26,00,40,20.50
2015,06,26,00,41,20.50
2015,06,26,00,42,20.40
2015,06,26,00,43,20.40
2015,06,26,00,44,20.30
2015,06,26,00,45,20.30
2015,06,26,00,46,20.20
2015,06,26,00,47,20.20
2015,06,26,00,48,20.10
2015,06,26,00,49,20.10
2015,06,26,00,50,20.00
2015,06,26,00,51,19.90
2015,06,26,00,52,19.90
2015,06,26,00,53,19.90
2015,06,26,00,54,19.90
2015,06,26,00,55,19.90
2015,06,26,00,56,19.90
2015,06,26,00,57,19.90
2015,06,26,00,58,19.90
2015,06,26,00,59,19.90
2015,06,26,01,00,19.90
2015,06,26,01,01,19.90
2015,06,26,01,02,19.90
2015,06,26,01,03,19.90
2015,06,26,01,04,19.90
2015,06,26,01,05,19.80
2015,06,26,01,06,19.80
2015,06,26,01,07,19.70
2015,06,26,01,08,19.60
2015,06,26,01,09,19.60
2015,06,26,01,10,19.60
2015,06,26,01,11,19.50
2015,06,26,01,12,19.50
2015,06,26,01,13,19.50
2015,06,26,01,14,19.50
2015,06,26,01,15,19.50
2015,06,26,01,16,19.50
2015,06,26,01,17,19.50
2015,06,26,01,18,19.50
2015,06,26,01,19,19.50
2015,06,26,01,20,19.50
2015,06,26,01,21,19.50
2015,06,26,01,22,19.50
2015,06,26,01,23,19.50
2015,06,26,01,24,19.50
2015,06,26,01,25,19.50
2015,06,26,01,26,19.50
2015,06,26,01,27,19.40
2015,06,26,01,28,19.40
2015,06,26,01,29,19.30
2015,06,26,01,30,19.30
2015,06,26,01,31,19.20
2015,06,26,01,32,19.10
2015,06,26,01,33,19.10
2015,06,26,01,34,19.10
2015,06,26,01,35,19.00
2015,06,26,01,36,18.90
2015,06,26,01,37,18.90
2015,06,26,01,38,18.90
2015,06,26,01,39,18.90
2015,06,26,01,40,18.90
2015,06,26,01,41,18.90
2015,06,26,01,42,18.90
2015,06,26,01,43,18.80
2015,06,26,01,44,18.80
2015,06,26,01,45,18.90
2015,06,26,01,46,18.90
2015,06,26,01,47,18.90
2015,06,26,01,48,18.90
2015,06,26,01,49,18.90
2015,06,26,01,50,18.90
2015,06,26,01,51,18.90
2015,06,26,01,52,18.90
2015,06,26,01,53,18.90
2015,06,26,01,54,18.90
2015,06,26,01,55,18.90
2015,06,26,01,56,19.00
2015,06,26,01,57,19.10
2015,06,26,01,58,19.10
2015,06,26,01,59,19.10
2015,06,26,02,00,19.10
2015,06,26,02,01,19.20
2015,06,26,02,02,19.20
2015,06,26,02,03,19.30
2015,06,26,02,04,19.30
2015,06,26,02,05,19.40
2015,06,26,02,06,19.40
2015,06,26,02,07,19.40
2015,06,26,02,08,19.40
2015,06,26,02,09,19.40
2015,06,26,02,10,19.30
2015,06,26,02,11,19.30
2015,06,26,02,12,19.20
2015,06,26,02,13,19.20
2015,06,26,02,14,19.20
2015,06,26,02,15,19.10
2015,06,26,02,16,19.10
2015,06,26,02,17,19.10
2015,06,26,02,18,19.10
2015,06,26,02,19,19.10
2015,06,26,02,20,19.10
2015,06,26,02,21,18.90
2015,06,26,02,22,18.90
2015,06,26,02,23,18.90
2015,06,26,02,24,18.90
2015,06,26,02,25,18.90
2015,06,26,02,26,18.80
2015,06,26,02,27,18.80
2015,06,26,02,28,18.80
2015,06,26,02,29,18.80
2015,06,26,02,30,18.80
2015,06,26,02,31,18.80
2015,06,26,02,32,18.80
2015,06,26,02,33,18.80
2015,06,26,02,34,18.80
2015,06,26,02,35,18.80
2015,06,26,02,36,18.90
2015,06,26,02,37,18.90
2015,06,26,02,38,18.90
2015,06,26,02,39,18.90
2015,06,26,02,40,18.90
2015,06,26,02,41,18.90
2015,06,26,02,42,18.90
2015,06,26,02,43,18.90
2015,06,26,02,44,18.90
2015,06,26,02,45,18.90
2015,06,26,02,46,18.90
2015,06,26,02,47,18.90
2015,06,26,02,48,18.90
2015,06,26,02,49,19.00
2015,06,26,02,50,19.10
2015,06,26,02,51,19.10
2015,06,26,02,52,19.10
2015,06,26,02,53,19.10
2015,06,26,02,54,19.10
2015,06,26,02,55,19.10
2015,06,26,02,56,19.10
2015,06,26,02,57,19.10
2015,06,26,02,58,19.10
2015,06,26,02,59,19.10
2015,06,26,03,00,19.10
2015,06,26,03,01,19.00
2015,06,26,03,02,18.90
2015,06,26,03,03,18.90
2015,06,26,03,04,18.90
2015,06,26,03,05,18.90
2015,06,26,03,06,18.90
2015,06,26,03,07,18.80
2015,06,26,03,08,18.80
2015,06,26,03,09,18.80
2015,06,26,03,10,18.80
2015,06,26,03,11,18.70
2015,06,26,03,12,18.70
2015,06,26,03,13,18.70
2015,06,26,03,14,18.60
2015,06,26,03,15,18.60
2015,06,26,03,16,18.60
2015,06,26,03,17,18.50
2015,06,26,03,18,18.50
2015,06,26,03,19,18.50
2015,06,26,03,20,18.50
2015,06,26,03,21,18.50
2015,06,26,03,22,18.50
2015,06,26,03,23,18.50
2015,06,26,03,24,18.60
2015,06,26,03,25,18.60
2015,06,26,03,26,18.60
2015,06,26,03,27,18.60
2015,06,26,03,28,18.70
2015,06,26,03,29,18.70
2015,06,26,03,30,18.70
2015,06,26,03,31,18.80
2015,06,26,03,32,18.80
2015,06,26,03,33,18.80
2015,06,26,03,34,18.90
2015,06,26,03,35,18.90
2015,06,26,03,36,18.90
2015,06,26,03,37,18.90
2015,06,26,03,38,18.90
2015,06,26,03,39,18.90
2015,06,26,03,40,18.90
2015,06,26,03,41,18.90
2015,06,26,03,42,18.90
2015,06,26,03,43,18.90
2015,06,26,03,44,19.10
2015,06,26,03,45,19.10
2015,06,26,03,46,19.10
2015,06,26,03,47,19.10
2015,06,26,03,48,19.10
2015,06,26,03,49,19.10
2015,06,26,03,50,19.10
2015,06,26,03,51,19.10
2015,06,26,03,52,19.10
2015,06,26,03,53,19.10
2015,06,26,03,54,19.10
2015,06,26,03,55,19.10
2015,06,26,03,56,19.10
2015,06,26,03,57,19.10
2015,06,26,03,58,19.00
2015,06,26,03,59,18.90
2015,06,26,04,00,18.90
2015,06,26,04,01,18.90
2015,06,26,04,02,18.90
2015,06,26,04,03,18.90
2015,06,26,04,04,19.00
2015,06,26,04,05,19.00
2015,06,26,04,06,19.10
2015,06,26,04,07,19.10
2015,06,26,04,08,19.10
2015,06,26,04,09,19.10
2015,06,26,04,10,19.10
2015,06,26,04,11,19.10
2015,06,26,04,12,19.10
2015,06,26,04,13,18.90
2015,06,26,04,14,18.90
2015,06,26,04,15,18.90
2015,06,26,04,16,18.90
2015,06,26,04,17,18.90
2015,06,26,04,18,18.90
2015,06,26,04,19,18.90
2015,06,26,04,20,18.90
2015,06,26,04,21,18.90
2015,06,26,04,22,18.90
2015,06,26,04,23,18.90
2015,06,26,04,24,18.90
2015,06,26,04,25,18.80
2015,06,26,04,26,18.80
2015,06,26,04,27,18.80
2015,06,26,04,28,18.80
2015,06,26,04,29,18.80
2015,06,26,04,30,18.80
2015,06,26,04,31,18.80
2015,06,26,04,32,18.80
2015,06,26,04,33,18.80
2015,06,26,04,34,18.70
2015,06,26,04,35,18.70
2015,06,26,04,36,18.70
2015,06,26,04,37,18.70
2015,06,26,04,38,18.70
2015,06,26,04,39,18.70
2015,06,26,04,40,18.70
2015,06,26,04,41,18.70
2015,06,26,04,42,18.70
2015,06,26,04,43,18.70
2015,06,26,04,44,18.70
2015,06,26,04,45,18.70
2015,06,26,04,46,18.70
2015,06,26,04,47,18.70
2015,06,26,04,48,18.70
2015,06,26,04,49,18.70
2015,06,26,04,50,18.70
2015,06,26,04,51,18.70
2015,06,26,04,52,18.70
2015,06,26,04,53,18.70
2015,06,26,04,54,18.70
2015,06,26,04,55,18.60
2015,06,26,04,56,18.60
2015,06,26,04,57,18.60
2015,06,26,04,58,18.60
2015,06,26,04,59,18.60
2015,06,26,05,00,18.60
2015,06,26,05,01,18.60
2015,06,26,05,02,18.60
2015,06,26,05,03,18.50
2015,06,26,05,04,18.50
2015,06,26,05,05,18.50
2015,06,26,05,06,18.50
2015,06,26,05,07,18.50
2015,06,26,05,08,18.50
2015,06,26,05,09,18.50
2015,06,26,05,10,18.50
2015,06,26,05,11,18.50
2015,06,26,05,12,18.50
2015,06,26,05,13,18.50
2015,06,26,05,14,18.50
2015,06,26,05,15,18.50
2015,06,26,05,16,18.50
2015,06,26,05,17,18.50
2015,06,26,05,18,18.50
2015,06,26,05,19,18.50
2015,06,26,05,20,18.50
2015,06,26,05,21,18.50
2015,06,26,05,22,18.50
2015,06,26,05,23,18.50
2015,06,26,05,24,18.50
2015,06,26,05,25,18.50
2015,06,26,05,26,18.50
2015,06,26,05,27,18.50
2015,06,26,05,28,18.50
2015,06,26,05,29,18.50
2015,06,26,05,30,18.50
2015,06,26,05,31,18.50
2015,06,26,05,32,18.50
2015,06,26,05,33,18.50
2015,06,26,05,34,18.50
2015,06,26,05,35,18.50
2015,06,26,05,36,18.50
2015,06,26,05,37,18.50
2015,06,26,05,38,18.50
2015,06,26,05,39,18.50
2015,06,26,05,40,18.60
2015,06,26,05,41,18.60
2015,06,26,05,42,18.60
2015,06,26,05,43,18.60
2015,06,26,05,44,18.60
2015,06,26,05,45,18.60
2015,06,26,05,46,18.60
2015,06,26,05,47,18.60
2015,06,26,05,48,18.60
2015,06,26,05,49,18.60
2015,06,26,05,50,18.60
2015,06,26,05,51,18.60
2015,06,26,05,52,18.60
2015,06,26,05,53,18.60
2015,06,26,05,54,18.60
2015,06,26,05,55,18.60
2015,06,26,05,56,18.60
2015,06,26,05,57,18.60
2015,06,26,05,58,18.60
2015,06,26,05,59,18.60
2015,06,26,06,00,18.60
2015,06,26,06,01,18.60
2015,06,26,06,02,18.60
2015,06,26,06,03,18.60
2015,06,26,06,04,18.60
2015,06,26,06,05,18.60
2015,06,26,06,06,18.60
2015,06,26,06,07,18.60
2015,06,26,06,08,18.60
2015,06,26,06,09,18.60
2015,06,26,06,10,18.70
2015,06,26,06,11,18.70
2015,06,26,06,12,18.70
2015,06,26,06,13,18.70
2015,06,26,06,14,18.80
2015,06,26,06,15,18.80
2015,06,26,06,16,18.80
2015,06,26,06,17,18.90
2015,06,26,06,18,18.90
2015,06,26,06,19,18.90
2015,06,26,06,20,18.90
2015,06,26,06,21,18.90
2015,06,26,06,22,19.00
2015,06,26,06,23,19.10
2015,06,26,06,24,19.10
2015,06,26,06,25,19.10
2015,06,26,06,26,19.10
2015,06,26,06,27,19.20
2015,06,26,06,28,19.20
2015,06,26,06,29,19.30
2015,06,26,06,30,19.30
2015,06,26,06,31,19.40
2015,06,26,06,32,19.40
2015,06,26,06,33,19.50
2015,06,26,06,34,19.60
2015,06,26,06,35,19.60
2015,06,26,06,36,19.70
2015,06,26,06,37,19.70
2015,06,26,06,38,19.80
2015,06,26,06,39,19.80
2015,06,26,06,40,19.90
2015,06,26,06,41,19.90
2015,06,26,06,42,19.90
2015,06,26,06,43,20.00
2015,06,26,06,44,20.10
2015,06,26,06,45,20.20
2015,06,26,06,46,20.20
2015,06,26,06,47,20.30
2015,06,26,06,48,20.40
2015,06,26,06,49,20.50
2015,06,26,06,50,20.60
2015,06,26,06,51,20.70
2015,06,26,06,52,20.80
2015,06,26,06,53,20.90
2015,06,26,06,54,21.00
2015,06,26,06,55,21.00
2015,06,26,06,56,21.10
2015,06,26,06,57,21.10
2015,06,26,06,58,21.20
2015,06,26,06,59,21.30
2015,06,26,07,00,21.30
2015,06,26,07,01,21.30
2015,06,26,07,02,21.40
2015,06,26,07,03,21.50
2015,06,26,07,04,21.60
2015,06,26,07,05,21.60
2015,06,26,07,06,21.60
2015,06,26,07,07,21.70
2015,06,26,07,08,21.70
2015,06,26,07,09,21.80
2015,06,26,07,10,21.90
2015,06,26,07,11,22.00
2015,06,26,07,12,22.10
2015,06,26,07,13,22.10
2015,06,26,07,14,22.20
2015,06,26,07,15,22.30
2015,06,26,07,16,22.30
2015,06,26,07,17,22.40
2015,06,26,07,18,22.50
2015,06,26,07,19,22.50
2015,06,26,07,20,22.50
2015,06,26,07,21,22.50
2015,06,26,07,22,22.50
2015,06,26,07,23,22.50
2015,06,26,07,24,22.50
2015,06,26,07,25,22.50
2015,06,26,07,26,22.50
2015,06,26,07,27,22.50
2015,06,26,07,28,22.50
2015,06,26,07,29,22.50
2015,06,26,07,30,22.50
2015,06,26,07,31,22.60
2015,06,26,07,32,22.60
2015,06,26,07,33,22.60
2015,06,26,07,34,22.60
2015,06,26,07,35,22.60
2015,06,26,07,36,22.60
2015,06,26,07,37,22.50
2015,06,26,07,38,22.50
2015,06,26,07,39,22.40
2015,06,26,07,40,22.40
2015,06,26,07,41,22.30
2015,06,26,07,42,22.20
2015,06,26,07,43,22.20
2015,06,26,07,44,22.20
2015,06,26,07,45,22.10
2015,06,26,07,46,22.10
2015,06,26,07,47,22.20
2015,06,26,07,48,22.20
2015,06,26,07,49,22.20
2015,06,26,07,50,22.20
2015,06,26,07,51,22.20
2015,06,26,07,52,22.20
2015,06,26,07,53,22.10
2015,06,26,07,54,22.00
2015,06,26,07,55,22.00
2015,06,26,07,56,21.90
2015,06,26,07,57,21.90
2015,06,26,07,58,21.80
2015,06,26,07,59,21.80
2015,06,26,08,00,21.70
2015,06,26,08,01,21.70
2015,06,26,08,02,21.70
2015,06,26,08,03,21.70
2015,06,26,08,04,21.70
2015,06,26,08,05,21.70
2015,06,26,08,06,21.70
2015,06,26,08,07,21.70
2015,06,26,08,08,21.60
2015,06,26,08,09,21.60
2015,06,26,08,10,21.60
2015,06,26,08,11,21.60
2015,06,26,08,12,21.60
2015,06,26,08,13,21.60
2015,06,26,08,14,21.60
2015,06,26,08,15,21.60
2015,06,26,08,16,21.60
2015,06,26,08,17,21.60
2015,06,26,08,18,21.60
2015,06,26,08,19,21.60
2015,06,26,08,20,21.60
2015,06,26,08,21,21.60
2015,06,26,08,22,21.60
2015,06,26,08,23,21.60
2015,06,26,08,24,21.60
2015,06,26,08,25,21.50
2015,06,26,08,26,21.40
2015,06,26,08,27,21.30
2015,06,26,08,28,21.30
2015,06,26,08,29,21.30
2015,06,26,08,30,21.30
2015,06,26,08,31,21.30
2015,06,26,08,32,21.40
2015,06,26,08,33,21.40
2015,06,26,08,34,21.30
2015,06,26,08,35,21.30
2015,06,26,08,36,21.20
2015,06,26,08,37,21.00
2015,06,26,08,38,20.90
2015,06,26,08,39,20.90
2015,06,26,08,40,20.90
2015,06,26,08,41,20.90
2015,06,26,08,42,20.90
2015,06,26,08,43,20.90
2015,06,26,08,44,21.00
2015,06,26,08,45,21.10
2015,06,26,08,46,21.20
2015,06,26,08,47,21.30
2015,06,26,08,48,21.30
2015,06,26,08,49,21.30
2015,06,26,08,50,21.50
2015,06,26,08,51,21.60
2015,06,26,08,52,21.60
2015,06,26,08,53,21.60
2015,06,26,08,54,21.60
2015,06,26,08,55,21.60
2015,06,26,08,56,21.60
2015,06,26,08,57,21.50
2015,06,26,08,58,21.40
2015,06,26,08,59,21.40
2015,06,26,09,00,21.40
2015,06,26,09,01,21.30
2015,06,26,09,02,21.30
2015,06,26,09,03,21.40
2015,06,26,09,04,21.50
2015,06,26,09,05,21.60
2015,06,26,09,06,21.60
2015,06,26,09,07,21.60
2015,06,26,09,08,21.60
2015,06,26,09,09,21.50
2015,06,26,09,10,21.40
2015,06,26,09,11,21.40
2015,06,26,09,12,21.40
2015,06,26,09,13,21.50
2015,06,26,09,14,21.60
2015,06,26,09,15,21.70
2015,06,26,09,16,21.70
2015,06,26,09,17,21.80
2015,06,26,09,18,21.80
2015,06,26,09,19,21.90
2015,06,26,09,20,21.90
2015,06,26,09,21,21.80
2015,06,26,09,22,21.80
2015,06,26,09,23,21.70
2015,06,26,09,24,21.70
2015,06,26,09,25,21.60
2015,06,26,09,26,21.50
2015,06,26,09,27,21.40
2015,06,26,09,28,21.40
2015,06,26,09,29,21.40
2015,06,26,09,30,21.50
2015,06,26,09,31,21.50
2015,06,26,09,32,21.40
2015,06,26,09,33,21.40
2015,06,26,09,34,21.40
2015,06,26,09,35,21.40
2015,06,26,09,36,21.40
2015,06,26,09,37,21.40
2015,06,26,09,38,21.30
2015,06,26,09,39,21.30
2015,06,26,09,40,21.30
2015,06,26,09,41,21.30
2015,06,26,09,42,21.30
2015,06,26,09,43,21.20
2015,06,26,09,44,21.20
2015,06,26,09,45,21.20
2015,06,26,09,46,21.10
2015,06,26,09,47,21.10
2015,06,26,09,48,21.10
2015,06,26,09,49,21.10
2015,06,26,09,50,21.10
2015,06,26,09,51,21.10
2015,06,26,09,52,21.10
2015,06,26,09,53,21.10
2015,06,26,09,54,21.20
2015,06,26,09,55,21.30
2015,06,26,09,56,21.30
2015,06,26,09,57,21.30
2015,06,26,09,58,21.50
2015,06,26,09,59,21.60
2015,06,26,10,00,21.70
2015,06,26,10,01,21.90
2015,06,26,10,02,22.00
2015,06,26,10,03,22.10
2015,06,26,10,04,22.20
2015,06,26,10,05,22.20
2015,06,26,10,06,22.20
2015,06,26,10,07,22.20
2015,06,26,10,08,22.20
2015,06,26,10,09,22.20
2015,06,26,10,10,22.30
2015,06,26,10,11,22.40
2015,06,26,10,12,22.40
2015,06,26,10,13,22.50
2015,06,26,10,14,22.50
2015,06,26,10,15,22.50
2015,06,26,10,16,22.60
2015,06,26,10,17,22.60
2015,06,26,10,18,22.40
2015,06,26,10,19,22.30
2015,06,26,10,20,22.10
2015,06,26,10,21,22.00
2015,06,26,10,22,21.90
2015,06,26,10,23,21.90
2015,06,26,10,24,21.90
2015,06,26,10,25,21.90
2015,06,26,10,26,21.90
2015,06,26,10,27,21.90
2015,06,26,10,28,21.90
2015,06,26,10,29,21.90
2015,06,26,10,30,21.80
2015,06,26,10,31,21.90
2015,06,26,10,32,21.90
2015,06,26,10,33,21.90
2015,06,26,10,34,21.90
2015,06,26,10,35,21.90
2015,06,26,10,36,22.00
2015,06,26,10,37,22.00
2015,06,26,10,38,22.20
2015,06,26,10,39,22.30
2015,06,26,10,40,22.40
2015,06,26,10,41,22.60
2015,06,26,10,42,22.70
2015,06,26,10,43,22.60
2015,06,26,10,44,22.60
2015,06,26,10,45,22.50
2015,06,26,10,46,22.50
2015,06,26,10,47,22.50
2015,06,26,10,48,22.60
2015,06,26,10,49,22.60
2015,06,26,10,50,22.50
2015,06,26,10,51,22.50
2015,06,26,10,52,22.50
2015,06,26,10,53,22.50
2015,06,26,10,54,22.50
2015,06,26,10,55,22.50
2015,06,26,10,56,22.60
2015,06,26,10,57,22.70
2015,06,26,10,58,22.80
2015,06,26,10,59,22.90
2015,06,26,11,00,22.90
2015,06,26,11,01,22.90
2015,06,26,11,02,22.80
2015,06,26,11,03,22.70
2015,06,26,11,04,22.60
2015,06,26,11,05,22.50
2015,06,26,11,06,22.40
2015,06,26,11,07,22.30
2015,06,26,11,08,22.40
2015,06,26,11,09,22.40
2015,06,26,11,10,22.50
2015,06,26,11,11,22.60
2015,06,26,11,12,22.60
2015,06,26,11,13,22.60
2015,06,26,11,14,22.60
2015,06,26,11,15,22.50
2015,06,26,11,16,22.40
2015,06,26,11,17,22.40
2015,06,26,11,18,22.30
2015,06,26,11,19,22.30
2015,06,26,11,20,22.20
2015,06,26,11,21,22.10
2015,06,26,11,22,22.10
2015,06,26,11,23,22.10
2015,06,26,11,24,22.10
2015,06,26,11,25,22.20
2015,06,26,11,26,22.20
2015,06,26,11,27,22.40
2015,06,26,11,28,22.50
2015,06,26,11,29,22.60
2015,06,26,11,30,22.60
2015,06,26,11,31,22.60
2015,06,26,11,32,22.50
2015,06,26,11,33,22.50
2015,06,26,11,34,22.50
2015,06,26,11,35,22.50
2015,06,26,11,36,22.60
2015,06,26,11,37,22.60
2015,06,26,11,38,22.70
2015,06,26,11,39,22.80
2015,06,26,11,40,22.80
2015,06,26,11,41,22.80
2015,06,26,11,42,22.80
2015,06,26,11,43,22.90
2015,06,26,11,44,23.00
2015,06,26,11,45,23.10
2015,06,26,11,46,23.20
2015,06,26,11,47,23.00
2015,06,26,11,48,22.90
2015,06,26,11,49,22.90
2015,06,26,11,50,22.90
2015,06,26,11,51,22.90
2015,06,26,11,52,22.90
2015,06,26,11,53,22.80
2015,06,26,11,54,22.80
2015,06,26,11,55,22.80
2015,06,26,11,56,22.80
2015,06,26,11,57,22.90
2015,06,26,11,58,23.00
2015,06,26,11,59,23.10
2015,06,26,12,00,23.10
2015,06,26,12,01,23.10
2015,06,26,12,02,23.10
2015,06,26,12,03,23.10
2015,06,26,12,04,23.10
2015,06,26,12,05,23.10
2015,06,26,12,06,23.10
2015,06,26,12,07,23.10
2015,06,26,12,08,23.10
2015,06,26,12,09,23.10
2015,06,26,12,10,23.10
2015,06,26,12,11,23.10
2015,06,26,12,12,23.10
2015,06,26,12,13,23.10
2015,06,26,12,14,23.20
2015,06,26,12,15,23.20
2015,06,26,12,16,23.20
2015,06,26,12,17,23.30
2015,06,26,12,18,23.30
2015,06,26,12,19,23.30
2015,06,26,12,20,23.30
2015,06,26,12,21,23.30
2015,06,26,12,22,23.30
2015,06,26,12,23,23.30
2015,06,26,12,24,23.30
2015,06,26,12,25,23.30
2015,06,26,12,26,23.30
2015,06,26,12,27,23.30
2015,06,26,12,28,23.30
2015,06,26,12,29,23.30
2015,06,26,12,30,23.30
2015,06,26,12,31,23.30
2015,06,26,12,32,23.30
2015,06,26,12,33,23.40
2015,06,26,12,34,23.50
2015,06,26,12,35,23.60
2015,06,26,12,36,23.40
2015,06,26,12,37,23.40
2015,06,26,12,38,23.40
2015,06,26,12,39,23.50
2015,06,26,12,40,23.60
2015,06,26,12,41,23.70
2015,06,26,12,42,23.80
2015,06,26,12,43,24.00
2015,06,26,12,44,24.10
2015,06,26,12,45,24.10
2015,06,26,12,46,24.10
2015,06,26,12,47,24.00
2015,06,26,12,48,23.90
2015,06,26,12,49,24.00
2015,06,26,12,50,24.10
2015,06,26,12,51,24.10
2015,06,26,12,52,24.20
2015,06,26,12,53,24.30
2015,06,26,12,54,24.30
2015,06,26,12,55,24.40
2015,06,26,12,56,24.50
2015,06,26,12,57,24.50
2015,06,26,12,58,24.40
2015,06,26,12,59,24.30
2015,06,26,13,00,24.30
2015,06,26,13,01,24.40
2015,06,26,13,02,24.50
2015,06,26,13,03,24.50
2015,06,26,13,04,24.50
2015,06,26,13,05,24.70
2015,06,26,13,06,24.80
2015,06,26,13,07,24.90
2015,06,26,13,08,25.00
2015,06,26,13,09,25.10
2015,06,26,13,10,25.10
2015,06,26,13,11,25.00
2015,06,26,13,12,25.00
2015,06,26,13,13,25.00
2015,06,26,13,14,24.90
2015,06,26,13,15,24.80
2015,06,26,13,16,24.80
2015,06,26,13,17,24.80
2015,06,26,13,18,24.90
2015,06,26,13,19,24.90
2015,06,26,13,20,24.90
2015,06,26,13,21,24.90
2015,06,26,13,22,24.90
2015,06,26,13,23,24.90
2015,06,26,13,24,24.80
2015,06,26,13,25,24.80
2015,06,26,13,26,24.60
2015,06,26,13,27,24.60
2015,06,26,13,28,24.70
2015,06,26,13,29,24.70
2015,06,26,13,30,24.60
2015,06,26,13,31,24.70
2015,06,26,13,32,24.70
2015,06,26,13,33,24.60
2015,06,26,13,34,24.60
2015,06,26,13,35,24.60
2015,06,26,13,36,24.50
2015,06,26,13,37,24.50
2015,06,26,13,38,24.60
2015,06,26,13,39,24.60
2015,06,26,13,40,24.70
2015,06,26,13,41,24.80
2015,06,26,13,42,24.90
2015,06,26,13,43,25.10
2015,06,26,13,44,25.20
2015,06,26,13,45,25.20
2015,06,26,13,46,25.20
2015,06,26,13,47,25.20
2015,06,26,13,48,25.30
2015,06,26,13,49,25.40
2015,06,26,13,50,25.60
2015,06,26,13,51,25.70
2015,06,26,13,52,25.70
2015,06,26,13,53,25.70
2015,06,26,13,54,25.60
2015,06,26,13,55,25.60
2015,06,26,13,56,25.60
2015,06,26,13,57,25.50
2015,06,26,13,58,25.40
2015,06,26,13,59,25.30
2015,06,26,14,00,25.30
2015,06,26,14,01,25.40
2015,06,26,14,02,25.50
2015,06,26,14,03,25.50
2015,06,26,14,04,25.40
2015,06,26,14,05,25.20
2015,06,26,14,06,25.00
2015,06,26,14,07,24.80
2015,06,26,14,08,24.70
2015,06,26,14,09,24.60
2015,06,26,14,10,24.70
2015,06,26,14,11,24.70
2015,06,26,14,12,24.80
2015,06,26,14,13,24.90
2015,06,26,14,14,24.90
2015,06,26,14,15,25.10
2015,06,26,14,16,25.20
2015,06,26,14,17,25.30
2015,06,26,14,18,25.40
2015,06,26,14,19,25.60
2015,06,26,14,20,25.80
2015,06,26,14,21,25.90
2015,06,26,14,22,26.10
2015,06,26,14,23,26.30
2015,06,26,14,24,26.50
2015,06,26,14,25,26.60
2015,06,26,14,26,26.70
2015,06,26,14,27,26.80
2015,06,26,14,28,26.90
2015,06,26,14,29,26.80
2015,06,26,14,30,26.80
2015,06,26,14,31,26.80
2015,06,26,14,32,26.90
2015,06,26,14,33,26.90
2015,06,26,14,34,26.90
2015,06,26,14,35,27.00
2015,06,26,14,36,27.10
2015,06,26,14,37,27.20
2015,06,26,14,38,27.30
2015,06,26,14,39,27.30
2015,06,26,14,40,27.40
2015,06,26,14,41,27.60
2015,06,26,14,42,27.70
2015,06,26,14,43,27.70
2015,06,26,14,44,27.80
2015,06,26,14,45,27.90
2015,06,26,14,46,27.80
2015,06,26,14,47,27.80
2015,06,26,14,48,27.80
2015,06,26,14,49,27.90
2015,06,26,14,50,27.90
2015,06,26,14,51,28.00
2015,06,26,14,52,28.00
2015,06,26,14,53,28.10
2015,06,26,14,54,28.10
2015,06,26,14,55,28.10
2015,06,26,14,56,28.00
2015,06,26,14,57,27.80
2015,06,26,14,58,27.50
2015,06,26,14,59,27.30
2015,06,26,15,00,27.20
2015,06,26,15,01,27.20
2015,06,26,15,02,27.20
2015,06,26,15,03,27.20
2015,06,26,15,04,27.10
2015,06,26,15,05,27.00
2015,06,26,15,06,26.90
2015,06,26,15,07,27.00
2015,06,26,15,08,27.10
2015,06,26,15,09,27.20
2015,06,26,15,10,27.30
2015,06,26,15,11,27.40
2015,06,26,15,12,27.50
2015,06,26,15,13,27.50
2015,06,26,15,14,27.40
2015,06,26,15,15,27.30
2015,06,26,15,16,27.30
2015,06,26,15,17,27.30
2015,06,26,15,18,27.30
2015,06,26,15,19,27.20
2015,06,26,15,20,27.30
2015,06,26,15,21,27.30
2015,06,26,15,22,27.40
2015,06,26,15,23,27.30
2015,06,26,15,24,27.30
2015,06,26,15,25,27.30
2015,06,26,15,26,27.40
2015,06,26,15,27,27.50
2015,06,26,15,28,27.60
2015,06,26,15,29,27.60
2015,06,26,15,30,27.70
2015,06,26,15,31,27.80
2015,06,26,15,32,27.90
2015,06,26,15,33,27.90
2015,06,26,15,34,27.90
2015,06,26,15,35,28.00
2015,06,26,15,36,27.90
2015,06,26,15,37,27.90
2015,06,26,15,38,27.90
2015,06,26,15,39,27.90
2015,06,26,15,40,28.00
2015,06,26,15,41,27.90
2015,06,26,15,42,27.80
2015,06,26,15,43,27.70
2015,06,26,15,44,27.70
2015,06,26,15,45,27.70
2015,06,26,15,46,27.80
2015,06,26,15,47,27.80
2015,06,26,15,48,27.90
2015,06,26,15,49,27.90
2015,06,26,15,50,28.00
2015,06,26,15,51,28.00
2015,06,26,15,52,28.10
2015,06,26,15,53,28.20
2015,06,26,15,54,28.30
2015,06,26,15,55,28.40
2015,06,26,15,56,28.40
2015,06,26,15,57,28.50
2015,06,26,15,58,28.60
2015,06,26,15,59,28.40
2015,06,26,16,00,28.40
2015,06,26,16,01,28.30
2015,06,26,16,02,28.20
2015,06,26,16,03,28.20
2015,06,26,16,04,28.30
2015,06,26,16,05,28.20
2015,06,26,16,06,28.10
2015,06,26,16,07,28.10
2015,06,26,16,08,28.10
2015,06,26,16,09,28.10
2015,06,26,16,10,28.00
2015,06,26,16,11,27.80
2015,06,26,16,12,27.80
2015,06,26,16,13,27.60
2015,06,26,16,14,27.50
2015,06,26,16,15,27.40
2015,06,26,16,16,27.40
2015,06,26,16,17,27.30
2015,06,26,16,18,27.30
2015,06,26,16,19,27.30
2015,06,26,16,20,27.30
2015,06,26,16,21,27.30
2015,06,26,16,22,27.20
2015,06,26,16,23,27.30
2015,06,26,16,24,27.30
2015,06,26,16,25,27.30
2015,06,26,16,26,27.50
2015,06,26,16,27,27.60
2015,06,26,16,28,27.80
2015,06,26,16,29,28.00
2015,06,26,16,30,28.00
2015,06,26,16,31,28.10
2015,06,26,16,32,28.10
2015,06,26,16,33,28.20
2015,06,26,16,34,28.30
2015,06,26,16,35,28.30
2015,06,26,16,36,28.30
2015,06,26,16,37,28.40
2015,06,26,16,38,28.40
2015,06,26,16,39,28.40
2015,06,26,16,40,28.30
2015,06,26,16,41,28.20
2015,06,26,16,42,28.20
2015,06,26,16,43,28.20
2015,06,26,16,44,28.10
2015,06,26,16,45,28.10
2015,06,26,16,46,28.10
2015,06,26,16,47,28.20
2015,06,26,16,48,28.30
2015,06,26,16,49,28.30
2015,06,26,16,50,28.30
2015,06,26,16,51,28.30
2015,06,26,16,52,28.30
2015,06,26,16,53,28.30
2015,06,26,16,54,28.40
2015,06,26,16,55,28.50
2015,06,26,16,56,28.50
2015,06,26,16,57,28.40
2015,06,26,16,58,28.30
2015,06,26,16,59,28.30
2015,06,26,17,00,28.30
2015,06,26,17,01,28.30
2015,06,26,17,02,28.40
2015,06,26,17,03,28.40
2015,06,26,17,04,28.50
2015,06,26,17,05,28.60
2015,06,26,17,06,28.60
2015,06,26,17,07,28.70
2015,06,26,17,08,28.70
2015,06,26,17,09,28.70
2015,06,26,17,10,28.80
2015,06,26,17,11,28.80
2015,06,26,17,12,28.80
2015,06,26,17,13,28.80
2015,06,26,17,14,28.80
2015,06,26,17,15,28.90
2015,06,26,17,16,28.90
2015,06,26,17,17,28.80
2015,06,26,17,18,28.80
2015,06,26,17,19,28.80